This demonstration page uses our WeatherBlox Daily Observations layout. Learn more.

Left ArrowRight Arrow

36.17497, -115.13722

Hourly Observations for March 20, 2019

Temp ( °F °C ) Dew Point ( °F °C ) Humidity (%) Winds ( mph kmh ) Pressure ( in mb ) Visibility ( mi km ) Precip ( " mm )
12:53 am 00:53 Cloudy 62 16.7 31 -0.6 31 31 Calm 29.91 1013 10 16 0.00 0.00
1:53 am 01:53 Mostly Cloudy 62 16.7 32 0 32 32 Calm 29.91 1013 10 16 0.00 0.00
2:53 am 02:53 Cloudy 62 16.7 31 -0.6 31 31 SE 6 9 29.91 1013 10 16 0.00 0.00
3:53 am 03:53 Mostly Clear 62 16.7 30 -1.1 30 30 SE 5 7 29.90 1013 10 16 0.00 0.00
4:53 am 04:53 Mostly Cloudy 61 16.1 30 -1.1 31 31 SE 8 13 29.90 1013 10 16 0.00 0.00
5:53 am 05:53 Cloudy 61 16.1 30 -1.1 31 31 SSE 6 9 29.91 1013 10 16 0.00 0.00
6:53 am 06:53 Cloudy 61 16.1 31 -0.6 32 32 SSE 6 9 29.93 1013 10 16 0.00 0.00
8:53 am 08:53 Partly Cloudy 63 17.2 31 -0.6 30 30 S 7 11 29.96 1015 10 16 0.00 0.00
10:53 am 10:53 Sunny 67 19.4 33 0.6 28 28 ESE 10 17 29.97 1015 10 16 0.00 0.00
11:53 am 11:53 Cloudy 67 19.4 32 0 27 27 S 10 17 29.97 1015 10 16 0.00 0.00
12:53 pm 12:53 Mostly Cloudy 66 18.9 31 -0.6 27 27 WSW 14 22 29.98 1015 10 16 0.00 0.00
1:53 pm 13:53 Cloudy 62 16.7 37 2.8 40 40 SW 21 33 29.98 1015 10 16 0.00 0.00
2:53 pm 14:53 Cloudy 60 15.6 39 3.9 46 46 WSW 17 28 29.98 1015 10 16 0.00 0.03
3:53 pm 15:53 Cloudy with Light Rain 56 13.3 44 6.7 65 65 W 14 22 30.01 1016 10 16 0.02 0.51
4:53 pm 16:53 Cloudy 56 13.3 43 6.1 62 62 undefined N/A 29.97 1015 10 16 0.00 0.03
5:53 pm 17:53 Cloudy with Light Rain 56 13.3 41 5 57 57 SW 15 24 29.98 1015 10 16 0.00 0.03
6:53 pm 18:53 Mostly Cloudy 57 13.9 40 4.4 53 53 SW 9 15 29.97 1015 10 16 0.01 0.25
7:53 pm 19:53 Mostly Cloudy 56 13.3 42 5.6 60 60 WSW 5 7 29.98 1015 10 16 0.00 0.00
8:53 pm 20:53 Cloudy 55 12.8 44 6.7 67 67 NNE 5 7 29.98 1015 10 16 0.00 0.00
9:53 pm 21:53 Cloudy 55 12.8 44 6.7 67 67 ENE 6 9 29.99 1016 10 16 0.00 0.03
10:53 pm 22:53 Cloudy 55 12.8 42 5.6 62 62 NE 5 7 29.97 1015 10 16 0.00 0.03
11:53 pm 23:53 Cloudy 54 12.2 45 7.2 72 72 Calm 29.97 1015 10 16 0.00 0.00

Powered by AerisWeather